TimeCEST,TemperatureF,Dew PointF,Humidity,Sea Level PressureIn,VisibilityMPH,Wind Direction,Wind SpeedMPH,Gust SpeedMPH,PrecipitationIn,Events,Conditions,WindDirDegrees,DateUTC
12:00 AM,64.4,64.4,100,30.01,0.1,Variable,1.2,-,N/A,Fog,Fog,0,2012-10-09 22:00:00
12:30 AM,64.4,64.4,100,30.01,0.2,Variable,1.2,-,N/A,Fog,Fog,0,2012-10-09 22:30:00
1:00 AM,64.4,64.4,100,30.01,0.2,Variable,2.3,-,N/A,Fog,Fog,0,2012-10-09 23:00:00
1:30 AM,64.4,64.4,100,29.98,0.1,Variable,1.2,-,N/A,Fog,Fog,0,2012-10-09 23:30:00
2:00 AM,65,64,96,30.00,0,Calm,Calm,,,Fog,Partial Fog,,2012-10-10 00:00:00
2:00 AM,64.4,64.4,100,29.98,0.1,Calm,Calm,-,N/A,Fog,Fog,0,2012-10-10 00:00:00
2:30 AM,64.4,64.4,100,29.98,0.1,Calm,Calm,-,N/A,Fog,Fog,0,2012-10-10 00:30:00
3:00 AM,64.4,64.4,100,29.98,0.1,Calm,Calm,-,N/A,Fog,Fog,0,2012-10-10 01:00:00
3:30 AM,62.6,62.6,100,29.98,0.1,NNW,4.6,-,N/A,Fog,Fog,340,2012-10-10 01:30:00
4:30 AM,62.6,62.6,100,29.95,0.1,WNW,6.9,-,N/A,Fog,Fog,300,2012-10-10 02:30:00
5:00 AM,60.8,60.8,100,29.95,0.2,WNW,9.2,-,N/A,Fog,Fog,290,2012-10-10 03:00:00
5:30 AM,60.8,60.8,100,29.95,0.2,WNW,9.2,-,N/A,Fog,Fog,290,2012-10-10 03:30:00
6:30 AM,62.6,62.6,100,29.95,0.4,East,1.2,-,N/A,Fog,Fog,90,2012-10-10 04:30:00
7:00 AM,62.6,62.6,100,29.95,0.2,Calm,Calm,-,N/A,Fog,Fog,0,2012-10-10 05:00:00
7:30 AM,62.6,62.6,100,29.95,0.2,Calm,Calm,-,N/A,Fog,Fog,0,2012-10-10 05:30:00
7:51 AM,60.8,60.8,100,29.95,0.6,Calm,Calm,-,N/A,,Partly Cloudy,0,2012-10-10 05:51:00
8:00 AM,63,62,96,29.97,1,Calm,Calm,,,,Mist,,2012-10-10 06:00:00
8:00 AM,60.8,60.8,100,29.95,0.6,Calm,Calm,-,N/A,,Partly Cloudy,0,2012-10-10 06:00:00
8:21 AM,60.8,60.8,100,29.95,0.4,SE,1.2,-,N/A,Fog,Fog,140,2012-10-10 06:21:00
8:30 AM,62.6,62.6,100,29.95,0.4,SSE,2.3,-,N/A,Fog,Fog,150,2012-10-10 06:30:00
9:00 AM,62.6,62.6,100,29.98,0.4,Variable,2.3,-,N/A,Fog,Fog,0,2012-10-10 07:00:00
9:21 AM,62.6,62.6,100,29.98,1.2,Calm,Calm,-,N/A,Fog,Patches of Fog,0,2012-10-10 07:21:00
9:30 AM,64.4,64.4,100,29.98,1.2,Calm,Calm,-,N/A,Fog,Patches of Fog,0,2012-10-10 07:30:00
9:48 AM,62.6,62.6,100,29.98,1.9,Calm,Calm,-,N/A,Fog,Fog,0,2012-10-10 07:48:00
10:00 AM,64.4,64.4,100,29.98,-9999.0,Calm,Calm,-,N/A,Fog,Fog,0,2012-10-10 08:00:00
10:30 AM,64.4,64.4,100,30.01,-9999.0,Calm,Calm,-,N/A,Fog,Fog,0,2012-10-10 08:30:00
11:00 AM,64.4,64.4,100,30.01,2.5,SE,3.5,-,N/A,,Scattered Clouds,140,2012-10-10 09:00:00
11:30 AM,66.2,66.2,100,30.01,2.8,NE,1.2,-,N/A,,Partly Cloudy,40,2012-10-10 09:30:00
11:39 AM,68.0,66.2,94,30.01,3.1,NE,1.2,-,N/A,,Partly Cloudy,40,2012-10-10 09:39:00
12:00 PM,69.8,68.0,94,30.01,3.7,Calm,Calm,-,N/A,,Partly Cloudy,0,2012-10-10 10:00:00
12:30 PM,71.6,64.4,78,30.01,5.0,Variable,1.2,-,N/A,,Unknown,0,2012-10-10 10:30:00
1:00 PM,75.2,66.2,73,29.98,-9999.0,ESE,2.3,-,N/A,,Clear,110,2012-10-10 11:00:00
1:30 PM,73.4,66.2,78,29.98,-9999.0,SSE,6.9,-,N/A,,Clear,150,2012-10-10 11:30:00
2:00 PM,74,65,65,29.99,7,SE,8.1,,,,Scattered Clouds,140,2012-10-10 12:00:00
2:00 PM,75.2,66.2,73,29.98,-9999.0,SE,8.1,-,N/A,,Clear,140,2012-10-10 12:00:00
3:00 PM,75.2,66.2,73,29.95,-9999.0,ESE,8.1,-,N/A,,Clear,110,2012-10-10 13:00:00
3:30 PM,71.6,66.2,83,29.92,-9999.0,East,9.2,-,N/A,,Clear,100,2012-10-10 13:30:00
4:00 PM,73.4,66.2,78,29.92,-9999.0,East,8.1,-,N/A,,Clear,80,2012-10-10 14:00:00
4:30 PM,78.8,66.2,65,29.92,-9999.0,Variable,2.3,-,N/A,,Clear,0,2012-10-10 14:30:00
5:00 PM,73.4,66.2,78,29.92,-9999.0,NE,6.9,-,N/A,,Clear,40,2012-10-10 15:00:00
5:30 PM,71.6,66.2,83,29.92,-9999.0,NE,3.5,-,N/A,,Clear,50,2012-10-10 15:30:00
6:00 PM,73.4,66.2,78,29.92,-9999.0,Calm,Calm,-,N/A,,Clear,0,2012-10-10 16:00:00
6:30 PM,75.2,64.4,69,29.89,-9999.0,Calm,Calm,-,N/A,,Clear,0,2012-10-10 16:30:00
7:00 PM,75.2,66.2,73,29.89,-9999.0,Calm,Calm,-,N/A,,Clear,0,2012-10-10 17:00:00
7:30 PM,75.2,66.2,73,29.89,-9999.0,Variable,1.2,-,N/A,,Clear,0,2012-10-10 17:30:00
8:00 PM,73,65,70,29.91,9,Calm,Calm,,,,Clear,,2012-10-10 18:00:00
8:00 PM,73.4,66.2,78,29.89,-9999.0,Calm,Calm,-,N/A,,Clear,0,2012-10-10 18:00:00
8:30 PM,71.6,66.2,83,29.92,-9999.0,Variable,1.2,-,N/A,,Clear,0,2012-10-10 18:30:00
9:00 PM,71.6,66.2,83,29.92,-9999.0,Variable,1.2,-,N/A,,Clear,0,2012-10-10 19:00:00
9:30 PM,71.6,66.2,83,29.92,-9999.0,Calm,Calm,-,N/A,,Clear,0,2012-10-10 19:30:00
10:00 PM,71.6,66.2,83,29.92,-9999.0,WNW,1.2,-,N/A,,Clear,290,2012-10-10 20:00:00
10:30 PM,75.2,62.6,65,29.92,-9999.0,Variable,2.3,-,N/A,,Clear,0,2012-10-10 20:30:00
11:00 PM,73.4,64.4,73,29.95,-9999.0,Variable,1.2,-,N/A,,Clear,0,2012-10-10 21:00:00
11:30 PM,75.2,62.6,65,29.95,-9999.0,Variable,2.3,-,N/A,,Clear,0,2012-10-10 21:30:00